This demonstration page uses our WeatherBlox Daily Observations layout. Learn more.

Left ArrowRight Arrow

Hourly Observations for May 26, 2019

Temp ( °F °C ) Dew Point ( °F °C ) Humidity (%) Winds ( mph kmh ) Pressure ( in mb ) Visibility ( mi km ) Precip ( " mm )
12:52 am 00:52 Cloudy 67 19.4 54 12.2 63 63 N 7 11 29.97 1015 10 16 0.00 0.00
1:17 am 01:17 Cloudy with Thunderstorms 67 19.4 53 11.7 61 61 N 7 11 29.98 1015 10 16 0.00 0.00
1:52 am 01:52 Cloudy with Thunderstorms 67 19.4 53 11.7 61 61 N 3 6 29.98 1015 10 16 0.00 0.00
2:11 am 02:11 Cloudy 66 18.9 53 11.7 63 63 N 6 9 29.99 1015 10 16 0.00 0.00
2:52 am 02:52 Cloudy 66 18.9 53 11.7 63 63 ENE 5 7 29.99 1016 10 16 0.00 0.00
3:52 am 03:52 Cloudy 64 17.8 54 12.2 70 70 N 5 7 29.99 1016 10 16 0.00 0.00
4:52 am 04:52 Cloudy 63 17.2 55 12.8 76 76 N 8 13 29.99 1016 10 16 0.00 0.00
5:52 am 05:52 Mostly Cloudy 62 16.7 54 12.2 75 75 NNE 6 9 29.99 1016 10 16 0.00 0.00
6:52 am 06:52 Partly Cloudy 62 16.7 52 11.1 70 70 Calm 30.01 1016 10 16 0.00 0.00
7:52 am 07:52 Partly Cloudy 64 17.8 52 11.1 65 65 ESE 7 11 30.05 1018 10 16 0.00 0.00
8:52 am 08:52 Partly Cloudy 66 18.9 55 12.8 68 68 E 7 11 30.07 1018 10 16 0.00 0.00
9:52 am 09:52 Mostly Sunny 69 20.6 56 13.3 63 63 ESE 9 15 30.07 1018 10 16 0.00 0.00
10:52 am 10:52 Mostly Sunny 72 22.2 58 14.4 61 61 S 10 17 30.08 1019 10 16 0.00 0.00
11:52 am 11:52 Mostly Sunny 73 22.8 59 15 62 62 SSE 3 6 30.06 1018 10 16 0.00 0.00
12:52 pm 12:52 Mostly Sunny 75 23.9 60 15.6 60 60 Calm 30.05 1018 10 16 0.00 0.00
1:52 pm 13:52 Mostly Sunny 79 26.1 58 14.4 49 49 ESE 9 15 30.02 1017 10 16 0.00 0.00
2:52 pm 14:52 Mostly Sunny 82 27.8 61 16.1 49 49 SE 10 17 29.99 1016 10 16 0.00 0.00
3:52 pm 15:52 Mostly Sunny 82 27.8 60 15.6 47 47 SE 13 20 29.97 1015 10 16 0.00 0.00
4:52 pm 16:52 Mostly Sunny 83 28.3 62 16.7 49 49 SSE 14 22 29.95 1014 10 16 0.00 0.00
5:52 pm 17:52 Mostly Cloudy 82 27.8 63 17.2 53 53 S 16 26 29.92 1013 10 16 0.00 0.00
6:52 pm 18:52 Cloudy 81 27.2 64 17.8 57 57 SSE 12 19 29.91 1013 10 16 0.00 0.00
7:52 pm 19:52 Cloudy 80 26.7 64 17.8 58 58 SSE 12 19 29.90 1013 10 16 0.00 0.00
8:52 pm 20:52 Cloudy 78 25.6 64 17.8 62 62 SSE 9 15 29.90 1013 10 16 0.00 0.00
9:52 pm 21:52 Cloudy 77 25 65 18.3 66 66 SE 9 15 29.90 1012 10 16 0.00 0.00
10:36 pm 22:36 Cloudy with Thunderstorms 77 25 66 18.9 69 69 S 9 15 29.91 1013 10 16 0.00 0.03
10:52 pm 22:52 Cloudy with Thunderstorms 75 23.9 68 20 79 79 S 6 9 29.94 1014 10 16 0.01 0.25
11:38 pm 23:38 Cloudy with Thunderstorms 69 20.6 66 18.9 90 90 W 15 24 29.97 1015 3 4 0.13 3.30
11:41 pm 23:41 Cloudy with Thunderstorms 69 20.6 66 18.9 90 90 WSW 15 24 29.97 1015 4 6 0.14 3.56
11:52 pm 23:52 Cloudy with Thunderstorms 68 20 65 18.3 90 90 S 5 7 29.96 1015 3 5 0.17 4.32

Powered by AerisWeather